Weather History for CYVR - November, 2012

Change the Weather History Date:

Friday, November 30, 2012

  Actual Average Record
Temperature  
Mean Temperature 48 °F -  
Max Temperature 51 °F 44 °F 53 °F (2008)
Min Temperature 46 °F 35 °F 16 °F (2014)
Degree Days  
Heating Degree Days 16    
Moisture  
Dew Point 46 °F    
Average Humidity 89    
Maximum Humidity 94    
Minimum Humidity 79    
Precipitation  
Precipitation 0.20 in - - ()
Sea Level Pressure  
Sea Level Pressure 29.37 in    
Wind  
Wind Speed 13 mph ()    
Max Wind Speed 20 mph    
Max Gust Speed 25 mph    
Visibility 11.5 miles    
Events Rain    
Averages and records for this station are not official NWS values.
T = Trace of Precipitation, MM = Missing Value Source: Averaged Metar Reports

Daily Weather History Graph

Daily Weather History Graph

Search for Another Location

Airport or City:

Trip Planner

Search our weather history database for the weather conditions in past years. The results will help you decide how hot, cold, wet, or windy it might be!

Date:

Astronomy

Nov. 30, 2012 Rise Set
Actual Time 7:45 AM PST 4:17 PM PST
Civil Twilight 7:09 AM PST 4:53 PM PST
Nautical Twilight 6:29 AM PST 5:33 PM PST
Astronomical Twilight 5:50 AM PST 6:12 PM PST
Moon 6:18 PM PST (11/30) 9:20 AM PST (11/30)
Length of Visible Light 9h 44m
Length of Day
8h 31m
Waning Gibbous, 96% of the Moon is Illuminated
Nov 30
Waning Gibbous
Dec 6
Last Quarter
Dec 13
New
Dec 19
First Quarter
Dec 28
Full

Hourly Weather History & Observations

Time (PST) Temp. Windchill Dew Point Humidity Pressure Visibility Wind Dir Wind Speed Gust Speed Precip Events Conditions
12:00 AM 50.0 °F - 44.6 °F 82% 29.43 in 15.0 mi East 12.7 mph 19.6 mph N/A   Overcast
1:00 AM 50.0 °F - 44.6 °F 82% 29.39 in 15.0 mi East 10.4 mph - N/A   Mostly Cloudy
1:36 AM 50.0 °F - - N/A% - 15.0 mi ESE 15.0 mph - N/A Rain Light Rain Showers
2:00 AM 50.0 °F - 44.6 °F 82% 29.38 in 15.0 mi East 15.0 mph - N/A Rain Light Rain Showers
3:00 AM 48.2 °F - 44.6 °F 87% 29.37 in 15.0 mi East 19.6 mph - N/A Rain Light Rain Showers
3:47 AM 48.2 °F - - N/A% - 15.0 mi East 19.6 mph - N/A   Overcast
4:00 AM 49 °F - 44 °F 79% 29.36 in 15 mi East 18.4 mph - - Rain Light Rain Showers
4:00 AM 50.0 °F - 44.6 °F 82% 29.36 in 15.0 mi East 17.3 mph - N/A   Overcast
4:42 AM 48.2 °F - - N/A% - 15.0 mi ESE 16.1 mph 21.9 mph N/A Rain Light Rain
5:00 AM 48.2 °F - 44.6 °F 87% 29.36 in 12.0 mi ESE 16.1 mph - N/A Rain Light Rain
6:00 AM 46.4 °F 39.5 °F 44.6 °F 93% 29.34 in 12.0 mi East 17.3 mph 23.0 mph N/A   Overcast
7:00 AM 48.2 °F - 44.6 °F 87% 29.33 in 12.0 mi East 15.0 mph - N/A   Mostly Cloudy
7:46 AM 48.2 °F - - N/A% - 15.0 mi East 16.1 mph - N/A Rain Light Rain Showers
8:00 AM 48.2 °F - 44.6 °F 87% 29.34 in 6.0 mi ESE 13.8 mph - N/A Rain Light Rain Showers
9:00 AM 48.2 °F - 46.4 °F 93% 29.36 in 6.0 mi ESE 18.4 mph - N/A Rain Light Rain
9:13 AM 48.2 °F - - N/A% - 8.0 mi East 15.0 mph - N/A Rain Light Rain
10:00 AM 48 °F - 46 °F 92% 29.37 in 12 mi East 13.8 mph - - Rain Light Rain
10:00 AM 48.2 °F - 46.4 °F 93% 29.37 in 12.0 mi ESE 13.8 mph - N/A Rain Light Rain
10:27 AM 48.2 °F - - N/A% - 6.0 mi SW 2.3 mph - N/A Rain Light Rain
10:30 AM 48.2 °F - - N/A% - 2.5 mi Calm Calm - N/A Rain Light Rain
10:35 AM 48.2 °F - - N/A% - 2.5 mi South 3.5 mph - N/A Rain Light Rain
10:54 AM 48.2 °F - - N/A% - 12.0 mi East 8.1 mph - N/A Rain Light Rain
11:00 AM 48.2 °F - 46.4 °F 93% 29.39 in 15.0 mi East 8.1 mph - N/A Rain Light Rain
12:00 PM 50.0 °F - 48.2 °F 94% 29.37 in 15.0 mi ESE 15.0 mph - N/A Rain Light Rain
1:00 PM 50.0 °F - 48.2 °F 94% 29.37 in 12.0 mi ESE 13.8 mph - N/A Rain Light Rain
2:00 PM 50.0 °F - 48.2 °F 94% 29.38 in 12.0 mi ESE 11.5 mph - N/A Rain Light Rain Showers
2:43 PM 51.8 °F - - N/A% - 15.0 mi ESE 12.7 mph - N/A   Overcast
3:00 PM 51.8 °F - 48.2 °F 88% 29.38 in 15.0 mi SE 6.9 mph 17.3 mph N/A   Overcast
4:00 PM 50 °F - 47 °F 88% 29.39 in 15 mi ESE 10.4 mph - -   Partly Cloudy
4:00 PM 50.0 °F - 48.2 °F 94% 29.39 in 15.0 mi ESE 10.4 mph - N/A   Overcast
5:00 PM 50.0 °F - 46.4 °F 87% 29.39 in 15.0 mi ESE 16.1 mph - N/A   Overcast
5:47 PM 50.0 °F - - N/A% - 10.0 mi ESE 16.1 mph 21.9 mph N/A Rain Light Rain
6:00 PM 50.0 °F - 48.2 °F 94% 29.39 in 8.0 mi ESE 15.0 mph 20.7 mph N/A Rain Light Rain
7:00 PM 50.0 °F - 48.2 °F 94% 29.38 in 8.0 mi ESE 17.3 mph - N/A Rain Light Rain
7:33 PM 50.0 °F - - N/A% - 6.0 mi ESE 16.1 mph - N/A Rain Light Rain
8:00 PM 50.0 °F - 48.2 °F 94% 29.38 in 10.0 mi ESE 18.4 mph - N/A Rain Light Rain Showers
9:00 PM 48.2 °F - 46.4 °F 93% 29.37 in 10.0 mi East 16.1 mph 25.3 mph N/A Rain Light Rain Showers
10:00 PM 47 °F - 45 °F 92% 29.37 in 7 mi East 17.3 mph - - Rain Light Rain Showers
10:00 PM 48.2 °F - 44.6 °F 87% 29.37 in 8.0 mi East 17.3 mph 23.0 mph N/A Rain Light Rain Showers
10:46 PM 46.4 °F 39.8 °F - N/A% - 12.0 mi East 16.1 mph 21.9 mph N/A   Overcast
11:00 PM 46.4 °F 39.2 °F 44.6 °F 93% 29.37 in 12.0 mi East 18.4 mph - N/A   Overcast
11:38 PM 46.4 °F 39.8 °F - N/A% - 8.0 mi East 16.1 mph - N/A Rain Light Rain